Location: Stigler
(35.2540°N, 95.1230°W)
Time: 18:25:18
(UTC-06:00)

Cosmos 2074 Rocket - Pass Details

Date: 26 September 2017
Orbit: 968 x 985 km, 82.9° (Epoch: 09 December)

Event Time Altitude Azimuth Distance (km) Brightness Sun altitude
Rises 19:30:25 0° 167° (SSE) 3,646 6.8 -4.8°
Reaches altitude 10° 19:33:01 10° 161° (SSE) 2,701 6.1 -5.3°
Maximum altitude 19:38:51 45° 90° (E) 1,287 4.3 -6.5°
Drops below altitude 10° 19:44:42 10° 20° (NNE) 2,714 6.2 -7.7°
Sets 19:47:19 0° 14° (NNE) 3,665 6.9 -8.2°
